Regional Weather Roundup
Issued by NWS

Home | Current Version | Previous Version | Graphics & Text | Print | Product List | Glossary On
Versions: 1 2 3 4 5 6 7 8 9 10 11 12 13 14 15 16 17 18 19 20 21 22 23 24 25 26 27
000
ASUS45 KCYS 201810
RWRWY

WYOMING REGIONAL WEATHER ROUNDUP
NATIONAL WEATHER SERVICE CHEYENNE WY
1200 PM MDT THU JUL 20 2017

NOTE:  "FAIR" INDICATES FEW OR NO CLOUDS BELOW 12,000 FEET
WITH NO SIGNIFICANT WEATHER AND/OR OBSTRUCTIONS TO VISIBILITY.

WYZ001-201900-
YELLOWSTONE NATIONAL PARK

CITY           SKY/WX    TMP DP  RH WIND       PRES   REMARKS
LK YELLOWSTONE   N/A     59  53  80 CALM      30.37S
6HR MIN TEMP:  40; 6HR MAX TEMP:  67; 6HR PCP:  0.05;

W YELLOWSTONE  NOT AVBL

$$
WYZ002>013-054>058-071-098>099-201900-
NORTHERN WYOMING

CITY           SKY/WX    TMP DP  RH WIND       PRES   REMARKS
JACKSON        SUNNY     81  50  34 S10         N/A
CODY           FAIR      91  43  18 E13       30.07S
GREYBULL       FAIR      91  52  26 S10       29.97F
6HR MIN TEMP:  69; 6HR MAX TEMP:  92;

WORLAND        NOT AVBL
SHERIDAN       NOT AVBL
BUFFALO        NOT AVBL
GILLETTE       NOT AVBL
HULETT         FAIR      91  54  27 S22G29    30.06F
NEWCASTLE      FAIR      88  50  27 SE16      30.10F

$$
WYZ014>020-022>026-101>103-201900-
CENTRAL WYOMING

CITY           SKY/WX    TMP DP  RH WIND       PRES   REMARKS
BIG PINEY      FAIR      76  50  40 VRB5      30.30F
6HR MIN TEMP:  51; 6HR MAX TEMP:  76;

PINEDALE       FAIR      77  46  33 E7        30.31F
DUBOIS         FAIR      81  36  19 W13G21    30.26S
LANDER         FAIR      83  51  33 CALM      30.14F
6HR MIN TEMP:  61; 6HR MAX TEMP:  83;

RIVERTON       FAIR      81  49  32 VRB5      30.14F
6HR MIN TEMP:  62; 6HR MAX TEMP:  83;

CASPER         FAIR      87  51  28 S15       30.15F
6HR MIN TEMP:  60; 6HR MAX TEMP:  87;

DOUGLAS        FAIR      89  51  27 S7G23     30.13F
6HR MIN TEMP:  67; 6HR MAX TEMP:  91;


$$
WYZ021-027>030-104>119-201900-
SOUTHERN WYOMING

CITY           SKY/WX    TMP DP  RH WIND       PRES   REMARKS
EVANSTON       FAIR      78  51  38 SW17      30.31S
6HR MIN TEMP:  58; 6HR MAX TEMP:  79;

KEMMERER         N/A     79  45  29 S3        30.32F
FORT BRIDGER   FAIR      80  48  32 SE6       30.33F
ROCK SPRINGS   FAIR      79  46  31 SW8       30.29F
6HR MIN TEMP:  59; 6HR MAX TEMP:  80;

RAWLINS        FAIR      81  46  29 W12       30.30
6HR MIN TEMP:  56; 6HR MAX TEMP:  82;

SARATOGA       FAIR      82  46  28 W10G18    30.33F
LARAMIE        FAIR      80  46  30 CALM      30.32F
6HR MIN TEMP:  57; 6HR MAX TEMP:  81;

CHEYENNE       FAIR      83  53  35 SW12G18   30.26F
6HR MIN TEMP:  63; 6HR MAX TEMP:  83;

TORRINGTON     FAIR      83  62  49 SE9       30.13F
6HR MIN TEMP:  67; 6HR MAX TEMP:  83;

PINE BLUFFS    FAIR      81  55  41 CALM      30.21F

$$




USA.gov is the U.S. government's official web portal to all federal, state and local government web resources and services.